sat.trackr.live / text

‹ back to catalog

STARLINK-35563

NORAD 66087 · 2025-236B

PAYLOAD ACTIVE UNKNOWN

§ Identity

Operator
Country
US
Launch date
2025-10-19
Launch site
AFWTR
Launch vehicle
Mass (kg)
RCS (m²)

Purposes: comms

External: N2YO · Heavens-Above · Gunter

§ Orbital elements

Epoch: 2026-09-20T05:22:33.301056Z

Period
93.85 min
Inclination
53.1592°
Eccentricity
0.0001447
Mean motion
15.34402003 rev/d
Perigee alt
461.7 km
Apogee alt
463.7 km
Semi-major
6,840.8 km
B*
3.6468e-4
RAAN
277.0933°
Arg perigee
85.5783°
Mean anomaly
274.5385°
Rev number
5,271

§ Raw data

STARLINK-355631 66087U 25236B   26263.22399654  .00011965  00000+0  36468-3 0  99952 66087  53.1592 277.0933 0001447  85.5783 274.5385 15.34402003 52718

JSON: /api/v1/satellites/66087 · /tle

For live sub-satellite position, see the globe view (requires WebGL).

§ Visibility from observer

Set your observer location to see the next 7 days of passes ≥ 10°. The values pass through the URL so the page stays shareable.

No JS? Fill the form by hand. The geolocation button needs JavaScript.